| time (UTC) | temp F | wind direction | speed MPH | gust MPH | rain 1hr in | rain 24hr in | rain mn in | humidity % | barometer mb |
| 20260903115004 | 60 | 66 | 3.0 | 6.0 | 0.00 | 0.00 | 0.00 | 83 | 1014.4 |
| 20260903114003 | 60 | 66 | 2.0 | 7.0 | 0.00 | 0.00 | 0.00 | 84 | 1014.4 |
| 20260903113003 | 60 | 91 | 2.0 | 4.0 | 0.00 | 0.00 | 0.00 | 84 | 1014.3 |
| 20260903112003 | 60 | 66 | 1.0 | 4.0 | 0.00 | 0.00 | 0.00 | 84 | 1014.4 |
| 20260903111003 | 60 | 59 | 0.0 | 3.0 | 0.00 | 0.00 | 0.00 | 84 | 1014.4 |
| 20260903110003 | 60 | 59 | 1.0 | 2.0 | 0.00 | 0.00 | 0.00 | 84 | 1014.5 |
| 20260903105024 | 60 | 58 | 2.0 | 6.0 | 0.00 | 0.00 | 0.00 | 84 | 1014.5 |
| 20260903104004 | 60 | 59 | 1.0 | 5.0 | 0.00 | 0.00 | 0.00 | 85 | 1014.5 |
| 20260903103003 | 60 | 60 | 1.0 | 4.0 | 0.00 | 0.00 | 0.00 | 85 | 1014.5 |
| 20260903102003 | 60 | 60 | 1.0 | 5.0 | 0.00 | 0.00 | 0.00 | 86 | 1014.6 |
| 20260903101003 | 60 | 60 | 0.0 | 4.0 | 0.00 | 0.00 | 0.00 | 86 | 1014.6 |
| 20260903095003 | 61 | 0 | 0.0 | 0.0 | 0.00 | 0.00 | 0.00 | 85 | 1014.7 |
| 20260903094003 | 61 | 0 | 0.0 | 0.0 | 0.00 | 0.00 | 0.00 | 85 | 1014.7 |
| 20260903093003 | 61 | 0 | 0.0 | 0.0 | 0.00 | 0.00 | 0.00 | 85 | 1014.9 |
| 20260903092003 | 61 | 0 | 0.0 | 0.0 | 0.00 | 0.00 | 0.00 | 84 | 1014.8 |
| 20260903091003 | 62 | 0 | 0.0 | 0.0 | 0.00 | 0.00 | 0.00 | 85 | 1014.9 |
| 20260903090003 | 62 | 0 | 0.0 | 0.0 | 0.00 | 0.00 | 0.00 | 85 | 1014.9 |
| 20260903085003 | 62 | 0 | 0.0 | 0.0 | 0.00 | 0.00 | 0.00 | 85 | 1015.1 |
| 20260903084004 | 62 | 0 | 0.0 | 0.0 | 0.00 | 0.00 | 0.00 | 85 | 1015.1 |
| 20260903083003 | 62 | 0 | 0.0 | 0.0 | 0.00 | 0.00 | 0.00 | 85 | 1015.1 |
| 20260903082003 | 62 | 0 | 0.0 | 0.0 | 0.00 | 0.00 | 0.00 | 85 | 1015.0 |
| 20260903081003 | 63 | 0 | 0.0 | 0.0 | 0.00 | 0.00 | 0.00 | 84 | 1015.1 |
| 20260903075003 | 63 | 0 | 0.0 | 0.0 | 0.00 | 0.00 | 0.00 | 84 | 1015.0 |
| 20260903074003 | 63 | 0 | 0.0 | 0.0 | 0.00 | 0.00 | 0.00 | 84 | 1015.0 |
| 20260903073024 | 63 | 0 | 0.0 | 0.0 | 0.00 | 0.00 | 0.00 | 84 | 1015.0 |
| 20260903071004 | 64 | 0 | 0.0 | 0.0 | 0.00 | 0.00 | 0.00 | 84 | 1014.9 |
| 20260903070005 | 64 | 0 | 0.0 | 0.0 | 0.00 | 0.00 | 0.00 | 84 | 1014.9 |
| 20260903065005 | 64 | 53 | 2.0 | 4.0 | 0.00 | 0.00 | 0.00 | 83 | 1014.9 |
| 20260903064026 | 64 | 62 | 1.0 | 5.0 | 0.00 | 0.00 | 0.00 | 83 | 1015.0 |
| 20260903062005 | 65 | 81 | 2.0 | 5.0 | 0.00 | 0.00 | 0.00 | 83 | 1014.9 |
| 20260903061004 | 65 | 143 | 1.0 | 4.0 | 0.00 | 0.00 | 0.00 | 82 | 1014.9 |
| 20260903060025 | 65 | 0 | 3.0 | 3.0 | 0.00 | 0.00 | 0.00 | 82 | 1015.0 |
| 20260903055005 | 66 | 0 | 1.0 | 1.0 | 0.00 | 0.00 | 0.00 | 82 | 1014.9 |
| 20260903054005 | 66 | 0 | 1.0 | 1.0 | 0.00 | 0.00 | 0.00 | 81 | 1015.0 |
| 20260903053004 | 66 | 0 | 1.0 | 1.0 | 0.00 | 0.00 | 0.00 | 81 | 1015.0 |
| 20260903052046 | 66 | 0 | 0.0 | 1.0 | 0.00 | 0.00 | 0.00 | 81 | 1015.0 |
| 20260903051025 | 66 | 187 | 0.0 | 1.0 | 0.00 | 0.00 | 0.00 | 81 | 1015.1 |
| 20260903050004 | 66 | 187 | 1.0 | 3.0 | 0.00 | 0.00 | 0.00 | 81 | 1015.1 |
| 20260903043004 | 67 | 188 | 0.0 | 4.0 | 0.00 | 0.00 | 0.00 | 80 | 1015.3 |
| 20260903042004 | 67 | 0 | 0.0 | 0.0 | 0.00 | 0.00 | 0.00 | 79 | 1015.3 |
| 20260903041025 | 68 | 188 | 1.0 | 4.0 | 0.00 | 0.00 | 0.00 | 79 | 1015.3 |
| 20260903040004 | 68 | 188 | 1.0 | 4.0 | 0.00 | 0.00 | 0.00 | 78 | 1015.2 |
| 20260903035009 | 68 | 181 | 1.0 | 6.0 | 0.00 | 0.00 | 0.00 | 78 | 1015.1 |
| 20260903033025 | 69 | 181 | 2.0 | 5.0 | 0.00 | 0.00 | 0.00 | 76 | 1015.0 |
| 20260903032004 | 69 | 209 | 2.0 | 4.0 | 0.00 | 0.00 | 0.00 | 75 | 1015.0 |
| 20260903031004 | 69 | 204 | 2.0 | 6.0 | 0.00 | 0.00 | 0.00 | 75 | 1014.9 |
| 20260903030025 | 70 | 221 | 3.0 | 7.0 | 0.00 | 0.00 | 0.00 | 74 | 1014.8 |
| 20260903025046 | 70 | 260 | 4.0 | 7.0 | 0.00 | 0.00 | 0.00 | 73 | 1014.8 |
| 20260903024004 | 71 | 243 | 3.0 | 8.0 | 0.00 | 0.00 | 0.00 | 71 | 1014.8 |
| 20260903023004 | 71 | 239 | 3.0 | 8.0 | 0.00 | 0.00 | 0.00 | 70 | 1014.7 |
| 20260903021025 | 73 | 241 | 3.0 | 9.0 | 0.00 | 0.00 | 0.00 | 67 | 1014.7 |
| 20260903015004 | 74 | 243 | 5.0 | 11.0 | 0.00 | 0.00 | 0.00 | 63 | 1014.6 |
| 20260903014004 | 76 | 243 | 4.0 | 10.0 | 0.00 | 0.00 | 0.00 | 59 | 1014.8 |
| 20260903013004 | 77 | 232 | 4.0 | 8.0 | 0.00 | 0.00 | 0.00 | 54 | 1014.7 |
| 20260903012004 | 78 | 246 | 4.0 | 11.0 | 0.00 | 0.00 | 0.00 | 48 | 1014.7 |
| 20260903011025 | 78 | 251 | 5.0 | 10.0 | 0.00 | 0.00 | 0.00 | 48 | 1014.7 |
| 20260903010004 | 79 | 251 | 5.0 | 12.0 | 0.00 | 0.00 | 0.00 | 44 | 1014.7 |
| 20260903004004 | 80 | 251 | 5.0 | 13.0 | 0.00 | 0.00 | 0.00 | 44 | 1014.7 |
| 20260903003004 | 80 | 253 | 5.0 | 13.0 | 0.00 | 0.00 | 0.00 | 44 | 1014.8 |
| 20260903002004 | 80 | 256 | 5.0 | 11.0 | 0.00 | 0.00 | 0.00 | 43 | 1014.8 |
| 20260903001004 | 81 | 251 | 5.0 | 13.0 | 0.00 | 0.00 | 0.00 | 45 | 1014.7 |
| 20260903000004 | 81 | 262 | 6.0 | 11.0 | 0.00 | 0.00 | 0.00 | 45 | 1014.8 |
| 20260902235004 | 80 | 252 | 5.0 | 14.0 | 0.00 | 0.00 | 0.00 | 46 | 1014.9 |
| 20260902234004 | 81 | 254 | 5.0 | 13.0 | 0.00 | 0.00 | 0.00 | 45 | 1014.9 |
| 20260902233025 | 81 | 252 | 6.0 | 14.0 | 0.00 | 0.00 | 0.00 | 48 | 1015.0 |
| 20260902232004 | 81 | 249 | 6.0 | 15.0 | 0.00 | 0.00 | 0.00 | 47 | 1015.0 |
| 20260902231004 | 81 | 251 | 5.0 | 12.0 | 0.00 | 0.00 | 0.00 | 44 | 1015.0 |
| 20260902230004 | 82 | 248 | 6.0 | 12.0 | 0.00 | 0.00 | 0.00 | 43 | 1015.1 |
| 20260902225004 | 81 | 253 | 5.0 | 14.0 | 0.00 | 0.00 | 0.00 | 43 | 1015.3 |
| 20260902224004 | 80 | 240 | 7.0 | 13.0 | 0.00 | 0.00 | 0.00 | 46 | 1015.5 |
| 20260902223046 | 80 | 242 | 5.0 | 13.0 | 0.00 | 0.00 | 0.00 | 47 | 1015.6 |
| 20260902221004 | 80 | 245 | 6.0 | 15.0 | 0.00 | 0.00 | 0.00 | 45 | 1015.6 |
| 20260902220004 | 80 | 244 | 6.0 | 15.0 | 0.00 | 0.00 | 0.00 | 45 | 1015.7 |
| 20260902215004 | 80 | 257 | 6.0 | 16.0 | 0.00 | 0.00 | 0.00 | 46 | 1015.8 |
| 20260902214004 | 80 | 258 | 6.0 | 14.0 | 0.00 | 0.00 | 0.00 | 48 | 1015.9 |
| 20260902212004 | 80 | 245 | 6.0 | 13.0 | 0.00 | 0.00 | 0.00 | 50 | 1015.8 |
| 20260902211035 | 80 | 243 | 6.0 | 13.0 | 0.00 | 0.00 | 0.00 | 52 | 1015.9 |
| 20260902210046 | 80 | 236 | 5.0 | 11.0 | 0.00 | 0.00 | 0.00 | 52 | 1016.0 |
| 20260902205025 | 80 | 245 | 6.0 | 14.0 | 0.00 | 0.00 | 0.00 | 51 | 1016.0 |
| 20260902204025 | 80 | 243 | 5.0 | 12.0 | 0.00 | 0.00 | 0.00 | 50 | 1016.1 |
| 20260902203004 | 80 | 241 | 5.0 | 11.0 | 0.00 | 0.00 | 0.00 | 51 | 1016.0 |
| 20260902201004 | 79 | 249 | 6.0 | 12.0 | 0.00 | 0.00 | 0.00 | 54 | 1016.3 |
| 20260902200004 | 79 | 235 | 5.0 | 14.0 | 0.00 | 0.00 | 0.00 | 52 | 1016.4 |
| 20260902195004 | 79 | 247 | 6.0 | 13.0 | 0.00 | 0.00 | 0.00 | 51 | 1016.5 |
| 20260902194004 | 79 | 240 | 5.0 | 12.0 | 0.00 | 0.00 | 0.00 | 51 | 1016.7 |
| 20260902193004 | 79 | 252 | 4.0 | 12.0 | 0.00 | 0.00 | 0.00 | 54 | 1016.8 |
| 20260902192004 | 79 | 251 | 5.0 | 12.0 | 0.00 | 0.00 | 0.00 | 54 | 1016.8 |
| 20260902191004 | 79 | 258 | 5.0 | 11.0 | 0.00 | 0.00 | 0.00 | 56 | 1016.7 |
| 20260902185025 | 79 | 240 | 4.0 | 10.0 | 0.00 | 0.00 | 0.00 | 55 | 1016.8 |
| 20260902184025 | 79 | 244 | 3.0 | 10.0 | 0.00 | 0.00 | 0.00 | 52 | 1016.6 |
| 20260902182004 | 79 | 241 | 3.0 | 8.0 | 0.00 | 0.00 | 0.00 | 52 | 1016.8 |
| 20260902180006 | 77 | 244 | 4.0 | 9.0 | 0.00 | 0.00 | 0.00 | 55 | 1016.8 |
| 20260902175004 | 77 | 245 | 3.0 | 9.0 | 0.00 | 0.00 | 0.00 | 53 | 1016.9 |
| 20260902173025 | 77 | 244 | 3.0 | 7.0 | 0.00 | 0.00 | 0.00 | 53 | 1017.0 |
| 20260902172004 | 76 | 248 | 2.0 | 7.0 | 0.00 | 0.00 | 0.00 | 54 | 1016.9 |
| 20260902171004 | 76 | 255 | 2.0 | 6.0 | 0.00 | 0.00 | 0.00 | 56 | 1016.9 |
| 20260902170004 | 76 | 264 | 2.0 | 6.0 | 0.00 | 0.00 | 0.00 | 58 | 1016.8 |
| 20260902165024 | 75 | 188 | 1.0 | 5.0 | 0.00 | 0.00 | 0.00 | 58 | 1016.7 |
| 20260902164003 | 74 | 211 | 1.0 | 5.0 | 0.00 | 0.00 | 0.00 | 61 | 1016.7 |
| 20260902163022 | 74 | 171 | 1.0 | 5.0 | 0.00 | 0.00 | 0.00 | 60 | 1016.7 |
| 20260902162004 | 74 | 76 | 1.0 | 3.0 | 0.00 | 0.00 | 0.00 | 64 | 1016.7 |
| 20260902161003 | 73 | 66 | 1.0 | 2.0 | 0.00 | 0.00 | 0.00 | 65 | 1016.7 |
| 20260902160005 | 70 | 66 | 1.0 | 2.0 | 0.00 | 0.00 | 0.00 | 69 | 1016.7 |
| 20260902155040 | 67 | 66 | 1.0 | 3.0 | 0.00 | 0.00 | 0.00 | 74 | 1016.8 |
| 20260902154004 | 61 | 66 | 1.0 | 3.0 | 0.00 | 0.00 | 0.00 | 83 | 1016.8 |
| 20260902151024 | 58 | 66 | 1.0 | 3.0 | 0.00 | 0.00 | 0.00 | 84 | 1016.7 |
| 20260902150025 | 57 | 66 | 2.0 | 4.0 | 0.00 | 0.00 | 0.00 | 84 | 1016.8 |
| 20260902145025 | 57 | 66 | 3.0 | 5.0 | 0.00 | 0.00 | 0.00 | 84 | 1016.7 |
| 20260902144003 | 57 | 72 | 3.0 | 6.0 | 0.00 | 0.00 | 0.00 | 84 | 1016.6 |
| 20260902141003 | 56 | 61 | 3.0 | 8.0 | 0.00 | 0.00 | 0.00 | 85 | 1016.6 |
| 20260902140004 | 56 | 66 | 3.0 | 7.0 | 0.00 | 0.00 | 0.00 | 84 | 1016.6 |
| 20260902135024 | 56 | 68 | 3.0 | 5.0 | 0.00 | 0.00 | 0.00 | 85 | 1016.3 |
| 20260902134004 | 56 | 62 | 3.0 | 8.0 | 0.00 | 0.00 | 0.00 | 85 | 1016.1 |
| 20260902133003 | 56 | 65 | 3.0 | 6.0 | 0.00 | 0.00 | 0.00 | 84 | 1016.0 |
| 20260902132003 | 56 | 61 | 3.0 | 6.0 | 0.00 | 0.00 | 0.00 | 84 | 1016.1 |
| 20260902131004 | 56 | 66 | 3.0 | 5.0 | 0.00 | 0.00 | 0.00 | 84 | 1016.0 |
| 20260902130004 | 56 | 68 | 3.0 | 5.0 | 0.00 | 0.00 | 0.00 | 84 | 1016.0 |
| 20260902125003 | 57 | 76 | 3.0 | 6.0 | 0.00 | 0.00 | 0.00 | 84 | 1016.0 |
| 20260902124003 | 57 | 69 | 3.0 | 6.0 | 0.00 | 0.00 | 0.00 | 85 | 1016.0 |
| 20260902123003 | 57 | 63 | 3.0 | 7.0 | 0.00 | 0.00 | 0.00 | 85 | 1016.0 |
| 20260902122024 | 57 | 62 | 3.0 | 8.0 | 0.00 | 0.00 | 0.00 | 84 | 1016.0 |
| 20260902121003 | 57 | 67 | 4.0 | 8.0 | 0.00 | 0.00 | 0.00 | 84 | 1015.9 |
| 20260902120003 | 57 | 60 | 4.0 | 6.0 | 0.00 | 0.00 | 0.00 | 85 | 1015.8 |